Satellite-Ground Cal/Val Region Overpasses Predictions

Prediction of Satellite NPP Overpassing Cal/Val Region: PacNW

Region Location: (Latitude: 10.00, Longitude: 139.50) to (Latitude: 22.70, Longitude: 165.60).

Table of predicted overpasses for the next 14.0 days since TLE Epoch: 11/26/2013
Interval Starting Time Starting Location Ending Time Ending Location
1 11/27/2013 02:28:09 ( 10.04, 163.06) 11/27/2013 02:31:44 ( 22.65, 160.05)
2 11/27/2013 15:00:03 ( 22.70, 160.33) 11/27/2013 15:03:39 ( 10.02, 157.30)
3 11/28/2013 02:11:50 ( 19.46, 165.60) 11/28/2013 02:12:45 ( 22.68, 164.80)
4 11/28/2013 03:50:39 ( 10.00, 142.45) 11/28/2013 03:54:09 ( 22.33, 139.51)
5 11/28/2013 14:41:04 ( 22.67, 165.07) 11/28/2013 14:44:39 ( 10.05, 162.06)
6 11/28/2013 16:22:34 ( 22.67, 139.70) 11/28/2013 16:22:47 ( 21.91, 139.51)
7 11/29/2013 03:31:39 ( 10.03, 147.20) 11/29/2013 03:35:14 ( 22.65, 144.19)
8 11/29/2013 16:03:34 ( 22.64, 144.45) 11/29/2013 16:07:09 ( 10.02, 141.43)
9 11/30/2013 03:12:40 ( 10.06, 151.94) 11/30/2013 03:16:15 ( 22.68, 148.93)
10 11/30/2013 15:44:34 ( 22.67, 149.21) 11/30/2013 15:48:09 ( 10.05, 146.20)
11 12/01/2013 02:53:39 ( 10.03, 156.71) 12/01/2013 02:57:14 ( 22.65, 153.69)
12 12/01/2013 15:25:34 ( 22.64, 153.95) 12/01/2013 15:29:09 ( 10.02, 150.94)
13 12/02/2013 02:34:40 ( 10.06, 161.45) 12/02/2013 02:38:15 ( 22.68, 158.44)
14 12/02/2013 15:06:34 ( 22.67, 158.72) 12/02/2013 15:10:09 ( 10.05, 155.70)
15 12/03/2013 02:16:25 ( 12.73, 165.59) 12/03/2013 02:19:14 ( 22.65, 163.20)
16 12/03/2013 03:57:09 ( 10.03, 140.84) 12/03/2013 03:58:47 ( 15.78, 139.50)
17 12/03/2013 14:47:34 ( 22.64, 163.46) 12/03/2013 14:51:09 ( 10.02, 160.45)
18 12/04/2013 03:38:10 ( 10.06, 145.59) 12/04/2013 03:41:45 ( 22.68, 142.57)
19 12/04/2013 14:31:41 ( 11.70, 165.59) 12/04/2013 14:32:09 ( 10.05, 165.21)
20 12/04/2013 16:10:04 ( 22.67, 142.85) 12/04/2013 16:13:39 ( 10.05, 139.84)
21 12/05/2013 03:19:09 ( 10.03, 150.35) 12/05/2013 03:22:44 ( 22.65, 147.34)
22 12/05/2013 15:51:03 ( 22.70, 147.61) 12/05/2013 15:54:39 ( 10.02, 144.58)
23 12/06/2013 03:00:09 ( 10.00, 155.11) 12/06/2013 03:03:45 ( 22.68, 152.08)
24 12/06/2013 15:32:04 ( 22.67, 152.36) 12/06/2013 15:35:39 ( 10.05, 149.34)
25 12/07/2013 02:41:10 ( 10.03, 159.85) 12/07/2013 02:44:45 ( 22.65, 156.84)
26 12/07/2013 15:13:03 ( 22.69, 157.12) 12/07/2013 15:16:39 ( 10.02, 154.09)
27 12/08/2013 02:22:09 ( 10.01, 164.61) 12/08/2013 02:25:45 ( 22.69, 161.59)
28 12/08/2013 14:54:04 ( 22.66, 161.86) 12/08/2013 14:57:39 ( 10.04, 158.85)
29 12/09/2013 03:44:40 ( 10.04, 143.99) 12/09/2013 03:48:15 ( 22.66, 140.98)
30 12/09/2013 14:36:14 ( 18.52, 165.60) 12/09/2013 14:38:39 ( 10.01, 163.60)
31 12/09/2013 16:16:33 ( 22.69, 141.25) 12/09/2013 16:18:35 ( 15.53, 139.51)
32 12/10/2013 03:25:39 ( 10.02, 148.75) 12/10/2013 03:29:15 ( 22.70, 145.72)


NCC Satellite Cal/Val Overpasses Prediction Service
